Regional Weather Roundup
Issued by NWS Charleston, WV

Home | Current Version | Previous Version | Graphics & Text | Print | Product List | Glossary On
Versions: 1 2 3 4 5 6 7 8 9 10 11 12 13 14 15 16 17 18 19 20 21 22 23 24 25 26 27 28 29 30 31 32 33 34 35 36 37 38 39 40 41 42 43 44 45 46 47 48
000
ASUS41 KRLX 022110
RWRRLX
West Virginia Regional Weather Roundup
National Weather Service Charleston WV
500 PM EDT SUN AUG 02 2015

Note: "fair" indicates few or no clouds below 12,000 feet with no
significant weather and/or obstructions to visibility.

WVZ003-022200-
Northern Panhandle of West Virginia

CITY           SKY/WX    TMP DP  RH WIND       PRES   REMARKS
WHEELING       MOSUNNY   84  61  45 SW13G22   29.92F
$$

WVZ009-022200-
Northwest West Virginia

CITY           SKY/WX    TMP DP  RH WIND       PRES   REMARKS
PARKERSBURG    MOSUNNY   85  58  39 S10       29.97F
$$

WVZ006-022200-
Western West Virginia

CITY           SKY/WX    TMP DP  RH WIND       PRES   REMARKS
HUNTINGTON     PTSUNNY   86  58  38 VRB7      29.97S
$$

WVZ015-022200-
West Central West Virginia

CITY           SKY/WX    TMP DP  RH WIND       PRES   REMARKS
CHARLESTON     MOSUNNY   84  58  40 SE6       29.98F
$$

WVZ022-031-022200-
North Central West Virginia

CITY           SKY/WX    TMP DP  RH WIND       PRES   REMARKS
CLARKSBURG     MOSUNNY   83  60  45 SW12      29.96F
MORGANTOWN     PTSUNNY   86  57  37 SW9       29.96F
$$

WVZ025-035-042-045-022200-
Southern West Virginia

CITY           SKY/WX    TMP DP  RH WIND       PRES   REMARKS
BECKLEY        SUNNY     78  51  38 CALM      30.07F
LOGAN          PTSUNNY   82  59  44 CALM      29.98F
BLUEFIELD      MOSUNNY   80  51  36 VRB5      30.09F
LEWISBURG      MOSUNNY   79  55  43 S5        30.06S
$$

WVZ047-022200-
Northern Mountains of West Virginia

CITY           SKY/WX    TMP DP  RH WIND       PRES   REMARKS
ELKINS         SUNNY     81  54  39 NW7       30.02F
$$

WVZ052-022200-
Eastern Panhandle of West Virginia

CITY           SKY/WX    TMP DP  RH WIND       PRES   REMARKS
MARTINSBURG    MOSUNNY   85  57  38 SW8       29.93F
PETERSBURG     MOSUNNY  N/A N/A N/A CALM      29.96F
$$



USA.gov is the U.S. government's official web portal to all federal, state and local government web resources and services.